Regional Weather Roundup
Issued by NWS

Home | Current Version | Previous Version | Text Only | Print | Product List | Glossary Off
Versions: 1 2 3 4 5 6 7 8 9 10 11 12 13 14 15 16 17 18 19 20 21 22 23 24 25 26 27 28 29 30 31 32 33 34 35 36 37 38 39 40 41 42 43 44 45 46 47 48 49 50

231
ASUS43 KMKX 250100
RWRWI

WISCONSIN REGIONAL WEATHER ROUNDUP
NATIONAL WEATHER SERVICE MILWAUKEE/SULLIVAN WI
800 PM CDT TUE APR 24 2018

NOTE: "FAIR" INDICATES FEW OR NO CLOUDS BELOW 12,000 FEET WITH NO
SIGNIFICANT WEATHER AND/OR OBSTRUCTIONS TO VISIBILITY.

WIZ001-002-006>008-014>016-023>028-250200-
NORTHWEST WISCONSIN

CITY           SKY/WX    TMP DP  RH WIND       PRES   REMARKS
SUPERIOR ARPT  FAIR      51  27  38 N13G18    30.20R
ASHLAND        FAIR      46  33  60 NE3       30.19R
HAYWARD        FAIR      50  31  48 CALM      30.16F
SIREN          FAIR      54  27  35 N6        30.18S
CUMBERLAND     FAIR      46  32  57 NE5       30.17S
RICE LAKE      FAIR      50  33  52 N7        30.19S
CHETEK         FAIR      47  35  62 N5        30.18R
LADYSMITH      FAIR      46  34  64 N7        30.19S
EAU CLAIRE     NOT AVBL
MENOMONIE      FAIR      52  35  52 NW9       30.17R
NEW RICHMOND   FAIR      52  34  51 N8        30.18S
OSCEOLA        FAIR      54  31  42 N9        30.21S
$$

WIZ003>005-009-010-017-018-250200-
NORTH CENTRAL WISCONSIN

CITY           SKY/WX    TMP DP  RH WIND       PRES   REMARKS
MANITOWISH WTR FAIR      40  40 100 CALM      30.16S
ARBOR VITAE    CLOUDY    42  39  91 N3        30.15S
WOODRUFF       CLOUDY    42  39  91 N3        30.15S
RHINELANDER    LGT RAIN  40  38  93 NE5       30.16R
EAGLE RIVER    LGT RAIN  38  35  86 CALM      30.15S
LAND O LAKES   CLOUDY    39  37  92 CALM      30.17S
PHILLIPS       FAIR      39  37  93 N3        30.16S
TOMAHAWK       LGT RAIN  40  35  83 N3        30.16S
MEDFORD        LGT RAIN  42  34  73 N13       30.13R
MERRILL        CLOUDY    47  31  52 N16       30.13R
$$

WIZ029-030-035-036-043>047-250200-
CENTRAL WISCONSIN

CITY           SKY/WX    TMP DP  RH WIND       PRES   REMARKS
WAUSAU         CLOUDY    49  29  46 N17G29    30.10R
MOSINEE        CLOUDY    52  30  43 N15G28    30.11R
MARSHFIELD     CLOUDY    50  31  48 N17G29    30.10R
STEVENS POINT  CLOUDY    57  31  37 N12G22    30.06R
WAUPACA        CLOUDY    57  33  39 NE10G16   30.05R
WAUTOMA        CLOUDY    63  32  31 NE5       30.03R
WISC RAPIDS    CLOUDY    59  31  34 N12       30.07R
CAMP DOUGLAS   NOT AVBL
$$

WIZ011>013-019>022-031-037>040-048>050-250200-
NORTHEAST WISCONSIN

CITY           SKY/WX    TMP DP  RH WIND       PRES   REMARKS
ANTIGO         CLOUDY    46  32  58 N17       30.12R
SHAWANO        CLOUDY    51  35  55 E7        30.07R
OCONTO         FAIR      48  32  53 E5        30.08R
STURGEON BAY   MOCLDY    48  31  51 N14       30.10R
GREEN BAY      CLOUDY    47  33  58 NE16G28   30.08R
MANITOWOC      FAIR      49  32  52 NE10      30.07R
APPLETON       MOCLDY    52  27  37 NE15G21   30.04R
CLINTONVILLE   CLOUDY    54  33  45 E7        30.06R
OSHKOSH        MOCLDY    53  37  54 NE18      30.03R
$$

WIZ032>034-041-042-053>061-250200-
SOUTHWEST WISCONSIN

CITY           SKY/WX    TMP DP  RH WIND       PRES   REMARKS
LA CROSSE      FAIR      63  34  33 N18G30    30.06R
SPARTA         MOCLDY    63  34  34 N15G25    30.07R
VIROQUA        FAIR      60  39  45 N10       30.05S
BOSCOBEL       CLOUDY    69  37  30 N8        30.02R
PRAIRIE DU CHI CLOUDY    67  34  29 NW12      30.02S
PLATTEVILLE    CLOUDY    67  37  32 NW8       30.00S
$$

WIZ056-057-062-063-064-067-068-250200-
SOUTH CENTRAL WISCONSIN

CITY           SKY/WX    TMP DP  RH WIND       PRES   REMARKS
REEDSBURG      CLOUDY    64  40  41 N9        30.02R
BARABOO/DELLS  CLOUDY    64  34  32 N14       30.02R
LONE ROCK      CLOUDY    66  38  35 N9        30.01R
MINERAL POINT  MOCLDY    66  32  28 N10       30.01R
MADISON        MOCLDY    62  32  32 E3        30.00R
MIDDLETON      CLOUDY    65  31  28 E7        30.00S
WATERTOWN      FAIR      59  47  64 E6        30.00R
MONROE         MOCLDY    64  30  27 NE7       29.99R
JANESVILLE     PTCLDY    66  21  18 N7        29.98S
$$

WIZ051-052-058>065-066-070>072-250200-
SOUTHEAST WISCONSIN

CITY           SKY/WX    TMP DP  RH WIND       PRES   REMARKS
MILWAUKEE      MOCLDY    49  46  90 NE5       30.03R
WAUKESHA       CLEAR     54  46  76 E5        30.03R
MILWAUKEE/TIMM PTCLDY    52  43  71 CALM      30.03S
RACINE         FAIR      45  42  89 N6        30.04R
BURLINGTON     FAIR      56  47  71 NE6       30.01R
KENOSHA        FAIR      52  45  77 N6        30.01R
FOND DU LAC    FAIR      59  45  59 NE7       30.01S
SHEBOYGAN      MOCLDY    49  36  61 NE17      30.04R
WEST BEND      FAIR      54  45  71 E5        30.02R
JUNEAU         FAIR      60  46  60 NE3       30.02R
$$

LSZ147-162-250200-
LAKE SUPERIOR

STATION/POSITION TIME  TEMP    WIND        PRES    WAVE
                       AIR SEA DIR/SP/G            HT/PER
                 (UTC) (F)     (DEG/KT/KT) (MB)    (FT/S)
DEVILS ISLAND    0000   48     200/  2/  3 1022.9R
SAXON HARBOR     0040   41      CALM  /  1 1021.7S
$$

LMZ867-665-643>646-250200-
LAKE MICHIGAN

STATION/POSITION TIME  TEMP    WIND        PRES    WAVE
                       AIR SEA DIR/SP/G            HT/PER
                 (UTC) (F)     (DEG/KT/KT) (MB)    (FT/S)
NORTHPORT PIER   0040   41                 1019.0R
KEWAUNEE LAKESHO 0030   45      20/  9/ 13 1017.4R
SHEBOYGAN LAKESH 0000   41      10/ 10/ 11 1017.4R
PORT WASHINGTON  0040   46      50/ 12/ 16 1017.9R
MILWAUKEE LAKESH 0030   47      20/  5/  6   N/A
KENOSHA   LAKESH 0000   43                 1016.3
$$

TC  - TEMPERATURE IN CELSIUS
VSB - VISIBILITY IN STATUTE MILES
WCI - WIND CHILL INDEX
HX  - HEAT INDEX





USA.gov is the U.S. government's official web portal to all federal, state and local government web resources and services.